This demonstration page uses our WeatherBlox Daily Observations layout. Learn more.

Left ArrowRight Arrow

36.17497, -115.13722

Hourly Observations for May 10, 2016

Temp ( °F °C ) Dew Point ( °F °C ) Humidity (%) Winds ( mph kmh ) Pressure ( in mb ) Visibility ( mi km ) Precip ( " mm )
12:53 am 00:53 Clear 72 22.2 42 5.6 34 34 W 5 7 29.78 1009 10 16.0934 0 0
1:53 am 01:53 Clear 70 21.1 44 6.7 39 39 Calm 29.79 1009 10 16.0934 0 0
2:53 am 02:53 Clear 67 19.4 45 7.2 45 45 W 3 6 29.8 1009 10 16.0934 0 0
3:53 am 03:53 Clear 66 18.9 43 6.1 43 43 N 5 7 29.81 1010 10 16.0934 0 0
4:53 am 04:53 Mostly Clear 65 18.3 42 5.6 43 43 N 6 9 29.83 1010 10 16.0934 0 0
5:53 am 05:53 Cloudy 66 18.9 42 5.6 42 42 N 6 9 29.85 1011 10 16.0934 0 0
6:53 am 06:53 Mostly Cloudy 68 20 41 5 38 38 ENE 7 11 29.88 1012 10 16.0934 0 0
7:53 am 07:53 Mostly Sunny 71 21.7 41 5 34 34 E 9 15 29.91 1013 10 16.0934 0 0
8:53 am 08:53 Sunny 74 23.3 39 3.9 28 28 E 13 20 29.92 1013 10 16.0934 0 0
9:53 am 09:53 Sunny 76 24.4 37 2.8 24 24 VRB 7 11 29.93 1013 10 16.0934 0 0
10:53 am 10:53 Sunny 77 25 37 2.8 24 24 ESE 8 13 29.92 1013 10 16.0934 0 0
11:53 am 11:53 Sunny 80 26.7 38 3.3 22 22 NE 9 15 29.91 1013 10 16.0934 0 0
12:53 pm 12:53 Sunny 81 27.2 39 3.9 22 22 ENE 8 13 29.89 1012 10 16.0934 0 0
1:53 pm 13:53 Sunny 82 27.8 40 4.4 22 22 undefined N/A 29.87 1012 10 16.0934 0 0
2:53 pm 14:53 Sunny 82 27.8 41 5 23 23 VRB 5 7 29.85 1011 10 16.0934 0 0
3:53 pm 15:53 Sunny 83 28.3 40 4.4 22 22 SE 5 7 29.83 1010 10 16.0934 0 0
4:53 pm 16:53 Sunny 84 28.9 40 4.4 21 21 S 5 7 29.82 1010 10 16.0934 0 0
5:53 pm 17:53 Sunny 85 29.4 40 4.4 20 20 NE 8 13 29.81 1009 10 16.0934 0 0
6:53 pm 18:53 Sunny 84 28.9 40 4.4 21 21 E 7 11 29.81 1010 10 16.0934 0 0
7:53 pm 19:53 Clear 82 27.8 43 6.1 25 25 SE 10 17 29.83 1010 10 16.0934 0 0
8:53 pm 20:53 Clear 81 27.2 41 5 24 24 SE 5 7 29.85 1011 10 16.0934 0 0
9:53 pm 21:53 Clear 78 25.6 42 5.6 28 28 E 6 9 29.87 1012 10 16.0934 0 0
10:53 pm 22:53 Clear 78 25.6 43 6.1 29 29 N 3 6 29.88 1012 10 16.0934 0 0
11:53 pm 23:53 Clear 74 23.3 44 6.7 34 34 NNW 7 11 29.89 1012 10 16.0934 0 0

Powered by AerisWeather